Location: Unspecified
(0.0000°N, 1.0000°E)
Time: 09:15:12
(UTC+02:00)

Daily predictions for brighter satellites

Satellite Brightness Start Highest point End
(mag) Time Altitude Azimuth Time Altitude Azimuth Time Altitude Azimuth
Ariane H10 4.0 20:08:40 10° W 20:13:16 89° SSW 20:49:55 10° E
Ariane H10 4.0 20:08:40 10° W 20:13:16 89° S 20:49:55 10° E
Ariane H10 4.0 20:08:40 10° W 20:13:16 89° S 20:49:56 10° E
Ariane H10 4.0 20:08:41 10° W 20:13:16 89° S 20:49:55 10° E
Ariane H10 4.0 20:08:41 10° W 20:13:17 89° S 20:49:55 10° E
Cosmos 2112 Rocket 4.1 20:14:10 10° S 20:19:18 54° ESE 20:24:23 10° NNE
Cosmos 883 Rocket 4.5 20:14:52 10° S 20:21:00 87° E 20:27:08 10° N
Cosmos 1812 3.5 20:17:58 10° SSW 20:21:48 58° W 20:25:35 10° N
USA 238 DEB 3.9 20:15:15 10° NNW 20:22:23 88° ENE 20:29:34 10° SSE
USA 238 3.9 20:15:21 10° NNW 20:22:29 86° ENE 20:29:40 10° SSE
Cosmos 1437 3.3 20:20:43 10° SSE 20:23:44 37° E 20:26:42 10° NNE
Ariane H10+ 1.5 20:24:29 10° WSW 20:26:20 21° S 20:27:46 11° SE
Intelsat 5-1 Rocket 4.4 20:20:01 10° NW 20:30:35 31° N 20:35:01 10° ENE
ATLAS 3B R/B 3.4 20:24:33 10° NW 20:30:44 51° WSW 20:36:59 10° S
FREGAT/IRIS 4.4 20:33:03 13° ESE 20:34:29 17° E 20:36:31 10° NE
GPS 2-05 Rocket1 2.5 20:31:53 10° NW 20:34:59 82° SW 20:37:34 14° SE
Cosmos 1680 Rocket 4.0 20:35:18 10° SSW 20:40:31 67° WNW 20:45:42 10° N
GPS 2-12 Rocket1 3.7 20:38:45 10° NW 20:43:07 44° NNE 20:46:29 15° E
ARIANE 44P R/B 3.3 20:42:05 10° WSW 20:44:46 39° SSE 20:49:49 15° ESE
Meteor 2-4 Rocket 4.5 20:40:20 10° SSE 20:45:04 29° E 20:49:53 10° NE
Okean 1 4.4 20:44:51 10° SSW 20:48:41 47° W 20:52:29 10° NNW
H-2A R/B 4.4 20:51:18 16° ENE 20:51:18 16° ENE 20:53:30 10° NE
Cosmos 1943 Rocket 2.7 20:48:54 10° N 20:53:54 36° ENE 20:56:56 20° SE
SL-27 R/B 3.9 20:51:13 10° SSW 20:54:40 43° WNW 20:58:08 10° N
USA 81 4.2 20:50:38 10° SSE 20:55:44 50° E 21:00:49 10° NNE
GPS 2-17 Rocket1 3.3 20:50:55 10° WSW 20:55:47 76° NNW 21:00:11 13° ENE
Delta 202 4.3 20:53:34 10° WNW 20:59:19 64° NNE 21:04:37 21° E
NOSS 3-2 (C) 4.2 20:51:30 10° N 20:59:31 59° ENE 21:05:50 18° SE
Helios 1B rocket 3.9 20:56:53 10° NE 20:58:53 20° ENE 20:58:53 20° ENE
H-II Stage 2 3.6 20:59:27 10° NW 21:03:34 80° NE 21:15:26 22° ESE
Cosmos 724 4.2 20:58:02 10° NNW 21:03:47 66° ENE 21:07:40 21° SSE
Cosmos 2369 Rocket 2.4 20:59:11 10° NNW 21:04:50 72° WSW 21:10:32 10° S
Abrixas 4.2 21:05:03 10° WNW 21:07:20 24° SW 21:08:19 19° SSW
MAQSAT/ARIANE V 1.7 21:08:28 10° WNW 21:10:22 45° N 21:11:10 33° NE
Milstar 3 Cent rocket 3.6 21:05:30 10° WSW 21:12:29 87° NNW 21:27:52 10° ENE
Cosmos 1709 Rocket 3.8 21:10:45 10° N 21:16:50 73° E 21:22:04 14° S
NOSS 3-2 (A) 4.2 21:08:47 10° NNW 21:16:59 79° WSW 21:24:01 15° SSE
Cosmos 1025 Rocket 4.2 21:20:29 26° NE 21:20:29 26° NE 21:22:48 10° NNE
FENGYUN 3A 3.5 21:16:37 18° SSE 21:20:38 84° ENE 21:26:00 10° N
HETE-2 4.4 21:17:15 10° W 21:21:26 88° S 21:22:08 61° E
BLOCK DM-SL R/B 4.4 14:14:04 10° W 21:23:17 89° N 21:30:02 28° E
Cosmos 1975 2.7 21:19:54 10° N 21:23:58 69° E 21:24:24 62° SE
Okean 1-7 Rocket 3.7 21:25:27 52° E 21:25:27 52° E 21:29:32 10° NNE
Cosmos 2082 Rocket 2.1 21:24:41 10° S 21:30:20 63° ESE 21:35:56 10° NNE
Ariane 42P Rocket 4.3 20:47:38 10° W 21:32:03 83° S 21:34:59 40° E
Meteor 1-23 Rocket 4.0 21:27:32 14° S 21:32:21 74° E 21:37:53 10° N
SJ-6B 3.4 21:30:57 33° SSW 21:32:37 60° WSW 21:36:41 10° NNW
Cosmos 1441 Rocket 3.9 21:32:59 22° SSW 21:35:10 51° W 21:38:47 10° N
CZ-3 Stage 3 4.0 21:25:09 10° WNW 21:36:29 24° SW 21:39:42 15° S
ARIANE 5 R/B 3.5 21:09:54 10° W 21:37:24 90° NNE 21:38:49 52° E
Cosmos 1500 4.0 21:36:50 10° NNW 21:40:26 47° W 21:40:54 44° WSW
Meteor 1-12 Rocket 4.4 21:35:56 10° N 21:41:49 76° W 21:44:48 30° S
ALOS 3.8 21:47:23 17° SSW 21:50:18 32° WSW 21:54:27 10° NW
Ariane 42L R/B 4.5 21:52:30 10° WSW 21:53:08 17° WSW 21:53:08 17° WSW
SL-08 ROCKET BODY 4.3 21:51:43 10° N 21:57:54 84° E 21:58:06 82° SE
Cosmos 1833 Rocket 2.9 21:53:54 10° SSW 21:59:27 68° WNW 22:05:00 10° N
Cosmos 2074 Rocket 4.1 21:54:09 10° N 21:59:22 58° NE 21:59:22 58° NE
COSMOS 2455 3.1 21:55:37 10° NNW 22:01:31 63° WSW 22:02:19 57° SSW
Spot 2 Rocket 4.0 22:03:32 53° NNW 22:03:32 53° NNW 22:07:21 10° NNW
Cosmos 1656 Rocket 4.2 22:01:38 10° NNW 22:05:44 52° N 22:05:44 52° N
Cosmos 2184 Rocket 4.3 22:01:48 10° N 22:06:40 56° NNE 22:06:40 56° NNE
Resurs 01 Rocket 3.7 22:22:32 26° WNW 22:22:32 26° WNW 22:24:51 10° NW
Ariane 44P Rocket 3.8 22:07:02 10° W 22:21:27 65° WNW 22:21:27 65° WNW
CENTAUR R/B 3.4 22:38:55 10° NNW 22:46:04 63° WNW 22:46:04 63° WNW
